Caldwell, ID

2:47 PM MST on February 19, 2017 (GMT -0700)
Caldwell Industrial

Weather History for KEUL - November, 2012

Change the Weather History Date:

Thursday, November 1, 2012

  Actual Average (KBOI) Record (KBOI)
Temperature  
Mean Temperature 52 °F -  
Max Temperature 62 °F 55 °F 74 °F (1988)
Min Temperature 42 °F 34 °F 15 °F (1995)
Degree Days  
Heating Degree Days 13    
Growing Degree Days 2 (Base 50)    
Moisture  
Dew Point 38 °F    
Average Humidity 63    
Maximum Humidity 76    
Minimum Humidity 39    
Precipitation  
Precipitation 0.00 in - - ()
Sea Level Pressure  
Sea Level Pressure 29.96 in    
Wind  
Wind Speed 6 mph (ENE)    
Max Wind Speed 15 mph    
Max Gust Speed 24 mph    
Visibility 10 miles    
Events      
Averages and records for this station are not official NWS values.
T = Trace of Precipitation, MM = Missing Value Source: NWS Daily Summary

Daily Weather History Graph

Daily Weather History Graph

Search for Another Location

Airport or City:

Trip Planner

Search our weather history database for the weather conditions in past years. The results will help you decide how hot, cold, wet, or windy it might be!

Date:

Astronomy

Nov. 01, 2012 Rise Set
Actual Time 8:23 AM MDT 6:36 PM MDT
Civil Twilight 7:53 AM MDT 7:06 PM MDT
Nautical Twilight 7:19 AM MDT 7:40 PM MDT
Astronomical Twilight 6:45 AM MDT 8:13 PM MDT
Moon 8:33 PM MDT (11/1) 11:03 AM MDT (11/1)
Length of Visible Light 11h 13m
Length of Day
10h 13m
Waning Gibbous, 92% of the Moon is Illuminated
Nov 1
Waning Gibbous
Nov 6
Last Quarter
Nov 13
New
Nov 20
First Quarter
Nov 28
Full

Hourly Weather History & Observations

Time (MDT) Temp. Windchill Dew Point Humidity Pressure Visibility Wind Dir Wind Speed Gust Speed Precip Events Conditions
12:15 AM 48.2 °F - 39.2 °F 71% 29.87 in 10.0 mi West 10.4 mph 24.2 mph N/A   Clear
12:35 AM 48.2 °F - 39.2 °F 71% 29.88 in 10.0 mi WNW 10.4 mph - N/A   Clear
1:15 AM 48.2 °F - 39.2 °F 71% 29.88 in 10.0 mi NNW 3.5 mph - N/A   Clear
1:35 AM 46.4 °F - 39.2 °F 76% 29.89 in 10.0 mi Calm Calm - N/A   Clear
1:55 AM 46.4 °F - 39.2 °F 76% 29.89 in 10.0 mi Calm Calm - N/A   Clear
2:15 AM 46.4 °F 43.5 °F 39.2 °F 76% 29.88 in 10.0 mi ENE 5.8 mph - N/A   Clear
2:35 AM 46.4 °F 45.2 °F 39.2 °F 76% 29.89 in 10.0 mi East 3.5 mph - N/A   Clear
2:55 AM 46.4 °F 42.9 °F 39.2 °F 76% 29.90 in 10.0 mi ENE 6.9 mph - N/A   Scattered Clouds
3:15 AM 48.2 °F - 39.2 °F 71% 29.90 in 10.0 mi NE 6.9 mph - N/A   Overcast
3:35 AM 48.2 °F - 39.2 °F 71% 29.91 in 10.0 mi SE 4.6 mph - N/A   Overcast
4:15 AM 50.0 °F - 39.2 °F 66% 29.92 in 10.0 mi NNW 8.1 mph - N/A   Overcast
4:35 AM 51.8 °F - 39.2 °F 62% 29.93 in 10.0 mi South 4.6 mph - N/A   Overcast
4:55 AM 51.8 °F - 39.2 °F 62% 29.93 in 10.0 mi North 5.8 mph - N/A   Overcast
5:15 AM 51.8 °F - 39.2 °F 62% 29.93 in 10.0 mi East 3.5 mph - N/A   Overcast
6:15 AM 50.0 °F - 41.0 °F 71% 29.94 in 10.0 mi ENE 6.9 mph - N/A   Overcast
6:35 AM 50.0 °F - 41.0 °F 71% 29.94 in 10.0 mi NE 9.2 mph - N/A   Overcast
6:55 AM 50.0 °F - 39.2 °F 66% 29.94 in 10.0 mi East 6.9 mph - N/A   Overcast
7:35 AM 48.2 °F - 39.2 °F 71% 29.94 in 10.0 mi NNE 8.1 mph - N/A   Scattered Clouds
7:55 AM 48.2 °F - 39.2 °F 71% 29.93 in 10.0 mi NE 6.9 mph - N/A   Mostly Cloudy
8:35 AM 48.2 °F - 39.2 °F 71% 29.94 in 10.0 mi East 4.6 mph - N/A   Overcast
8:55 AM 48.2 °F - 39.2 °F 71% 29.95 in 10.0 mi SE 5.8 mph - N/A   Overcast
9:35 AM 48.2 °F - 39.2 °F 71% 29.96 in 10.0 mi SSE 6.9 mph - N/A   Overcast
10:15 AM 50.0 °F - 39.2 °F 66% 29.97 in 10.0 mi SE 3.5 mph - N/A   Overcast
10:35 AM 51.8 °F - 41.0 °F 67% 29.97 in 10.0 mi SE 5.8 mph - N/A   Mostly Cloudy
10:55 AM 53.6 °F - 41.0 °F 62% 29.97 in 10.0 mi South 4.6 mph - N/A   Scattered Clouds
11:15 AM 53.6 °F - 41.0 °F 62% 29.97 in 10.0 mi SSE 5.8 mph - N/A   Mostly Cloudy
11:35 AM 55.4 °F - 41.0 °F 58% 29.98 in 10.0 mi Calm Calm - N/A   Mostly Cloudy
11:55 AM 57.2 °F - 42.8 °F 59% 29.99 in 10.0 mi West 4.6 mph - N/A   Partly Cloudy
3:15 PM 62.6 °F - 39.2 °F 42% 29.96 in 10.0 mi NW 15.0 mph 23.0 mph N/A   Mostly Cloudy
3:35 PM 62.6 °F - 37.4 °F 39% 29.95 in 10.0 mi NNW 6.9 mph - N/A   Scattered Clouds
3:55 PM 62.6 °F - 37.4 °F 39% 29.95 in 10.0 mi NNE 5.8 mph - N/A   Clear
4:15 PM 62.6 °F - 39.2 °F 42% 29.95 in 10.0 mi NNE 12.7 mph - N/A   Scattered Clouds
4:55 PM 59.0 °F - 37.4 °F 45% 29.97 in 10.0 mi NE 10.4 mph - N/A   Mostly Cloudy
5:15 PM 57.2 °F - 39.2 °F 51% 29.97 in 10.0 mi ENE 5.8 mph - N/A   Scattered Clouds
5:35 PM 59.0 °F - 39.2 °F 48% 29.97 in 10.0 mi East 5.8 mph - N/A   Partly Cloudy
5:55 PM 57.2 °F - 39.2 °F 51% 29.98 in 10.0 mi East 3.5 mph - N/A   Partly Cloudy
6:15 PM 57.2 °F - 37.4 °F 48% 29.98 in 10.0 mi East 4.6 mph - N/A   Clear
6:35 PM 55.4 °F - 37.4 °F 51% 29.98 in 10.0 mi East 6.9 mph - N/A   Clear
6:55 PM 53.6 °F - 37.4 °F 54% 29.98 in 10.0 mi East 6.9 mph - N/A   Clear
7:15 PM 51.8 °F - 35.6 °F 54% 29.99 in 10.0 mi Calm Calm - N/A   Clear
7:35 PM 51.8 °F - 35.6 °F 54% 30.00 in 10.0 mi ESE 3.5 mph - N/A   Clear
7:55 PM 51.8 °F - 35.6 °F 54% 30.00 in 10.0 mi SSE 3.5 mph - N/A   Clear
8:15 PM 50.0 °F - 35.6 °F 58% 30.01 in 10.0 mi SSW 3.5 mph - N/A   Clear
8:55 PM 48.2 °F - 35.6 °F 62% 30.01 in 10.0 mi Calm Calm - N/A   Overcast
9:15 PM 48.2 °F - 35.6 °F 62% 30.01 in 10.0 mi Calm Calm - N/A   Overcast
9:35 PM 48.2 °F - 37.4 °F 66% 30.02 in 10.0 mi Calm Calm - N/A   Overcast
9:55 PM 48.2 °F - 37.4 °F 66% 30.03 in 10.0 mi Calm Calm - N/A   Overcast
10:15 PM 48.2 °F - 37.4 °F 66% 30.03 in 10.0 mi Calm Calm - N/A   Mostly Cloudy
10:35 PM 46.4 °F - 35.6 °F 66% 30.04 in 10.0 mi Calm Calm - N/A   Mostly Cloudy
10:55 PM 44.6 °F 41.4 °F 33.8 °F 66% 30.05 in 10.0 mi North 5.8 mph - N/A   Mostly Cloudy
11:15 PM 44.6 °F 43.1 °F 35.6 °F 71% 30.05 in 10.0 mi North 3.5 mph - N/A   Scattered Clouds
11:35 PM 42.8 °F - 35.6 °F 76% 30.06 in 10.0 mi Calm Calm - N/A   Partly Cloudy
11:55 PM 44.6 °F 43.1 °F 35.6 °F 71% 30.06 in 10.0 mi SSE 3.5 mph - N/A   Clear